Showing default

SJ-25, 62485

Orbit data source: Space-Track

SJ-25, 62485 is a payload satellite owned by SAST (CN) in GEO that was launched on Mon, 06 Jan 2025 UTC via a CHANG ZHENG 3B launch vehicle from the Xichang Space Center, China (XSC). Payload-class satellites include a variety of spacecraft equipped with specific instruments for various scientific and technological missions. These include communications satellites like Starlink; space stations such as the ISS; scientific satellites like the Hubble; Earth observation satellites from companies like Planet Labs, Umbra, and HawkEye 360; GPS; miniature CubeSats for education and research; and military/defense satellites.

Not visible in the next 10 days
Identifier
62485, 2025-002A
Orbit
GEO
Country
Flag of CNCN / PRC
Related business
Manufacturer
SAST?
Mission
Operational Defense Technology
Bus & Motor
SJ21, Unknown motor
Mass
~5,000 kg wet, ~2,500 kg dry
Launch date (UTC)
2025-01-06 (1 year ago)
Launch vehicle
CHANG ZHENG 3B
Launch site
Xichang Space Center, China (XSC)
Object type
Payload
Rocket body
Debris
Shape & HBR
Box + 2 Pan, 3.4 m
Radar Cross Section
34.063 m², Large (>1 m²)

Expand to show TLE details & history
Last TLE update: 16 hours ago

TLE from 16 hours ago
0 SJ-25
1 62485U 25002A   26119.73100375 -.00000349  00000-0  00000+0 0  9995
2 62485   5.0010  61.4506 0050906 169.6664  16.9661  1.00273499  4876
Epoch: 2026-04-29T17:32Z
TLE epoch observation values (Epoch: 2026-04-29T17:32:38.723Z)
Latitude
-0.59856°
Longitude
127.38733°
Altitude
35,579.723 km
Speed
3.09 km/s
True Right ascension
16h 32m 56s
True Declination
0° 35' 53"
Sunlit
Object was in daylight at epoch
Visualization orbit readout
Latitude
Unknown
Longitude
Unknown
Altitude
Unknown
Speed
Unknown
Apparent Right ascension
Unknown
Apparent Declination
Unknown
Sunlit
N/A
Visualization observer readout
Local Sidereal Time
17:29:30
Azimuth
Unknown
Elevation
Unknown
Doppler factor
Unknown
Orbital elements
Apogee altitude
36,001.82 km
Perigee altitude
35,572.526 km
Semi-major axis
42,165.31 km
Eccentricity
0.00509
Inclination
5.001°
RAAN
61.4506°
Arg. of periapsis
169.6664°
True anomaly
17.13736°
Mean anomaly
16.9661°
Eccentric anomaly
17.05163°
Mean motion
0.25067 °/min
Orbital period
1,436.13 mins
BSTAR
0
Loading maneuver chart data...
Computing Atmospheric mass density...
Loading historical data...
Loading historical data...
Loading historical data...
Loading historical data...
Loading historical data...
Loading historical data...
Loading historical data...
Other satellites on launch #2 in the year 2025 (2025-01-06 UTC)

Documentation

Showing up to 5 results
|